GW2455 Weather Reports


Display with metric or nautical units.
time (UTC)temp
F
wind
direction
speed
MPH
gust
MPH
rain 1hr
in
rain 24hr
in
rain mn
in
humidity
%
barometer
mb
20260508163703 62 339 10.0 22.0 0.00 0.05 0.01 75 1017.7
20260508163528 62 357 12.0 20.0 0.00 0.05 0.01 76 1017.8
20260508162704 62 47 13.0 21.0 0.00 0.05 0.01 76 1017.8
20260508162516 62 4 12.0 21.0 0.00 0.05 0.01 77 1017.8
20260508161703 62 347 12.0 23.0 0.00 0.05 0.01 77 1017.7
20260508161204 62 13 15.0 23.0 0.00 0.05 0.01 75 1017.6
20260508160702 62 30 12.0 21.0 0.00 0.05 0.01 76 1017.6
20260508160157 62 330 12.0 22.0 0.00 0.05 0.01 77 1017.6
20260508155657 61 30 12.0 22.0 0.00 0.05 0.01 78 1017.7
20260508155156 61 328 9.0 20.0 0.00 0.05 0.01 80 1017.8
20260508154652 61 30 15.0 20.0 0.00 0.05 0.01 79 1017.7
20260508154147 61 18 11.0 22.0 0.00 0.05 0.01 80 1017.7
20260508153645 60 357 10.0 22.0 0.00 0.05 0.01 81 1017.7
20260508153146 60 343 15.0 22.0 0.00 0.05 0.01 80 1017.7
20260508152643 60 339 11.0 22.0 0.00 0.05 0.01 80 1017.8
20260508152143 60 8 15.0 21.0 0.00 0.05 0.01 82 1017.8
20260508151643 60 339 10.0 19.0 0.00 0.05 0.01 83 1017.6
20260508151140 59 344 14.0 22.0 0.00 0.05 0.01 82 1017.6
20260508150640 60 10 14.0 22.0 0.00 0.05 0.01 80 1017.7
20260508150136 62 344 13.0 21.0 0.00 0.05 0.01 79 1017.7
20260508145959 62 28 7.0 19.0 0.00 0.05 0.01 79 1017.5
20260508145134 62 30 13.0 19.0 0.01 0.05 0.01 77 1017.4
20260508144631 62 30 10.0 18.0 0.01 0.05 0.01 78 1017.4
20260508144132 62 30 12.0 22.0 0.01 0.05 0.01 79 1017.5
20260508143631 62 1 9.0 22.0 0.01 0.05 0.01 80 1017.4
20260508143131 62 30 14.0 20.0 0.01 0.05 0.01 80 1017.4
20260508142631 61 28 13.0 19.0 0.01 0.05 0.01 80 1017.4
20260508142449 60 34 7.0 14.0 0.01 0.05 0.01 83 1017.5
20260508141645 60 30 10.0 18.0 0.01 0.05 0.01 83 1017.4
20260508141131 59 18 8.0 18.0 0.01 0.06 0.01 83 1017.6
20260508140633 59 337 9.0 19.0 0.01 0.06 0.01 84 1017.7
20260508140132 59 306 9.0 19.0 0.01 0.06 0.01 84 1017.7
20260508135633 59 18 11.0 17.0 0.01 0.06 0.01 83 1017.6
20260508135132 60 13 10.0 16.0 0.00 0.07 0.00 81 1017.6
20260508134632 61 353 10.0 16.0 0.00 0.10 0.00 80 1017.5
20260508134128 62 48 7.0 16.0 0.00 0.11 0.00 78 1017.5
20260508133628 62 17 10.0 19.0 0.00 0.11 0.00 76 1017.3
20260508133129 62 38 13.0 19.0 0.00 0.11 0.00 76 1017.4
20260508132630 62 11 12.0 20.0 0.00 0.12 0.00 77 1017.3
20260508132129 62 356 12.0 20.0 0.00 0.12 0.00 74 1017.3
20260508131631 62 30 9.0 22.0 0.00 0.12 0.00 76 1017.3
20260508131127 63 20 11.0 24.0 0.00 0.12 0.00 76 1017.4
20260508130627 63 30 17.0 29.0 0.00 0.12 0.00 74 1017.4
20260508130127 62 349 12.0 29.0 0.00 0.15 0.00 73 1017.4
20260508125627 62 17 13.0 22.0 0.00 0.17 0.00 76 1017.4
20260508125126 62 25 15.0 29.0 0.00 0.17 0.00 77 1017.4
20260508124626 62 354 10.0 29.0 0.00 0.17 0.00 77 1017.5
20260508124125 61 30 17.0 26.0 0.00 0.17 0.00 76 1017.4
20260508123626 62 30 13.0 24.0 0.00 0.17 0.00 76 1017.4
20260508123448 62 21 11.0 22.0 0.00 0.17 0.00 76 1017.4
20260508122947 62 30 14.0 22.0 0.00 0.17 0.00 76 1017.5
20260508122241 62 354 11.0 21.0 0.00 0.17 0.00 78 1017.4
20260508121124 62 30 12.0 23.0 0.00 0.17 0.00 78 1017.2
20260508120624 61 30 12.0 23.0 0.00 0.17 0.00 77 1017.2
20260508120121 61 339 10.0 23.0 0.00 0.17 0.00 78 1017.3
20260508115619 61 10 17.0 23.0 0.00 0.17 0.00 78 1017.2
20260508115117 61 17 7.0 18.0 0.00 0.17 0.00 80 1017.1
20260508114617 61 40 10.0 18.0 0.00 0.17 0.00 80 1017.1
20260508114114 61 30 7.0 18.0 0.00 0.17 0.00 79 1017.2
20260508113619 61 1 9.0 18.0 0.00 0.17 0.00 77 1017.0
20260508113111 62 53 13.0 19.0 0.00 0.17 0.00 76 1017.0
20260508112611 62 27 14.0 19.0 0.00 0.17 0.00 76 1017.0
20260508112107 62 44 10.0 22.0 0.00 0.17 0.00 77 1017.0
20260508111724 61 30 13.0 24.0 0.00 0.17 0.00 77 1017.0
20260508110605 61 30 8.0 20.0 0.00 0.17 0.00 78 1016.8
20260508110108 61 60 11.0 20.0 0.00 0.17 0.00 79 1016.8
20260508105604 61 37 11.0 19.0 0.00 0.17 0.00 79 1016.8
20260508105104 61 30 11.0 19.0 0.00 0.17 0.00 79 1016.8
20260508104602 61 30 10.0 21.0 0.00 0.17 0.00 79 1017.0
20260508104103 60 36 12.0 21.0 0.00 0.17 0.00 79 1016.8
20260508103603 60 6 12.0 30.0 0.00 0.17 0.00 79 1016.8
20260508103105 60 46 12.0 30.0 0.00 0.17 0.00 78 1016.7
20260508102603 60 339 9.0 20.0 0.00 0.17 0.00 78 1016.8
20260508102101 60 33 15.0 20.0 0.00 0.17 0.00 78 1016.6
20260508101557 61 7 8.0 19.0 0.00 0.17 0.00 79 1016.6
20260508101059 61 8 9.0 24.0 0.00 0.17 0.00 77 1016.5
20260508100708 61 17 18.0 29.0 0.00 0.17 0.00 77 1016.4
20260508095548 61 38 11.0 23.0 0.00 0.17 0.00 77 1016.4
20260508095045 61 30 12.0 23.0 0.00 0.17 0.00 76 1016.4
20260508094544 61 353 6.0 20.0 0.00 0.17 0.00 78 1016.4
20260508094044 60 30 9.0 20.0 0.00 0.17 0.00 78 1016.4
20260508093544 60 48 11.0 22.0 0.00 0.17 0.00 79 1016.3
20260508093042 60 27 14.0 22.0 0.00 0.17 0.00 78 1016.2
20260508092541 60 27 13.0 23.0 0.00 0.17 0.00 78 1016.1
20260508092035 60 344 15.0 23.0 0.00 0.17 0.00 77 1016.0
20260508091532 60 40 10.0 18.0 0.00 0.17 0.00 79 1015.9
20260508091033 60 36 7.0 19.0 0.00 0.17 0.00 79 1016.0
20260508090532 60 48 11.0 22.0 0.00 0.17 0.00 79 1015.8
20260508090033 60 30 11.0 22.0 0.00 0.17 0.00 80 1015.7
20260508085531 60 357 11.0 19.0 0.00 0.17 0.00 80 1015.8
20260508085023 60 43 12.0 19.0 0.00 0.17 0.00 80 1015.7
20260508084523 60 30 11.0 19.0 0.00 0.17 0.00 80 1015.6
20260508084019 60 34 6.0 22.0 0.00 0.17 0.00 80 1015.6
20260508083520 60 4 13.0 22.0 0.00 0.17 0.00 80 1015.4
20260508083020 60 24 11.0 20.0 0.00 0.17 0.00 80 1015.3
20260508082848 60 30 13.0 20.0 0.00 0.17 0.00 80 1015.2
20260508082020 59 27 14.0 20.0 0.00 0.17 0.00 82 1015.1
20260508081841 59 30 10.0 20.0 0.00 0.17 0.00 82 1015.1
20260508081019 59 7 9.0 22.0 0.00 0.17 0.00 82 1015.2
20260508080521 59 37 13.0 28.0 0.00 0.17 0.00 82 1015.1
20260508080020 59 350 11.0 28.0 0.00 0.17 0.00 82 1015.0
20260508075514 59 30 14.0 28.0 0.00 0.17 0.00 82 1014.9
20260508075337 59 36 10.0 24.0 0.00 0.17 0.00 82 1014.9
20260508074515 59 31 7.0 26.0 0.00 0.17 0.00 82 1014.8
20260508074011 59 6 16.0 26.0 0.00 0.17 0.00 83 1014.8
20260508073509 59 357 8.0 21.0 0.00 0.17 0.00 83 1014.7
20260508073005 58 359 6.0 28.0 0.00 0.17 0.00 83 1014.6
20260508072506 58 351 16.0 28.0 0.00 0.17 0.00 83 1014.5
20260508072333 58 322 9.0 20.0 0.00 0.17 0.00 83 1014.4
20260508071505 58 10 10.0 20.0 0.00 0.17 0.00 84 1014.3
20260508071002 58 354 9.0 21.0 0.00 0.17 0.00 84 1014.2
20260508070504 58 289 13.0 21.0 0.00 0.17 0.00 84 1014.2
20260508070004 58 359 9.0 20.0 0.00 0.17 0.00 84 1014.1
20260508065502 57 7 7.0 19.0 0.00 0.17 0.00 84 1014.1
20260508064957 57 308 3.0 19.0 0.00 0.17 0.00 84 1014.1
20260508064449 57 30 13.0 19.0 0.00 0.17 0.00 84 1014.0
20260508063947 57 38 8.0 15.0 0.00 0.17 0.00 83 1014.0
20260508063444 57 11 6.0 18.0 0.00 0.17 0.00 83 1013.9
20260508062944 58 342 12.0 18.0 0.00 0.17 0.00 84 1013.9
20260508062440 58 15 6.0 21.0 0.00 0.17 0.00 84 1014.0
20260508061938 57 318 13.0 22.0 0.00 0.17 0.00 84 1013.8
20260508061439 58 323 13.0 22.0 0.00 0.17 0.00 83 1013.8
20260508061328 58 356 11.0 19.0 0.00 0.17 0.00 82 1013.9
20260508060752 58 343 11.0 17.0 0.00 0.17 0.00 81 1013.8
20260508060304 58 13 7.0 22.0 0.00 0.17 0.00 82 1013.5
20260508055754 58 335 3.0 22.0 0.00 0.17 0.00 82 1013.4
20260508054934 58 342 7.0 22.0 0.00 0.17 0.00 82 1013.4
20260508054433 58 356 13.0 28.0 0.00 0.17 0.00 83 1013.5
20260508053926 58 15 12.0 28.0 0.00 0.17 0.00 83 1013.4
20260508053425 58 340 8.0 27.0 0.00 0.17 0.00 83 1013.3
20260508052921 58 18 13.0 27.0 0.00 0.17 0.00 83 1013.3
20260508052418 58 8 14.0 26.0 0.00 0.17 0.00 84 1013.3
20260508051918 58 354 14.0 23.0 0.00 0.17 0.00 85 1013.1
20260508051431 57 28 10.0 22.0 0.00 0.17 0.00 85 1013.2
20260508050918 57 7 13.0 23.0 0.00 0.17 0.00 85 1013.2
20260508050415 57 6 11.0 23.0 0.00 0.17 0.00 84 1013.2
20260508050255 57 44 15.0 26.0 0.00 0.17 0.00 84 1013.2
20260508045411 58 357 17.0 28.0 0.00 0.17 0.00 83 1013.1
20260508045248 58 13 16.0 28.0 0.00 0.17 0.00 82 1013.0
20260508044407 58 353 11.0 23.0 0.00 0.17 0.00 82 1013.0
20260508043908 58 343 16.0 30.0 0.00 0.17 0.00 83 1012.8
20260508043405 58 15 12.0 30.0 0.00 0.17 0.00 83 1012.7
20260508042902 57 353 19.0 29.0 0.00 0.17 0.00 83 1012.7
20260508042402 57 347 17.0 31.0 0.00 0.17 0.00 83 1012.8
20260508041903 57 13 22.0 31.0 0.00 0.17 0.00 81 1012.7
20260508041404 57 342 14.0 30.0 0.00 0.17 0.00 81 1012.9
20260508040902 57 15 13.0 30.0 0.00 0.17 0.00 81 1012.8
20260508040356 57 13 16.0 27.0 0.00 0.17 0.00 81 1012.9
20260508040218 58 312 7.0 23.0 0.00 0.17 0.00 79 1012.9
20260508035356 58 15 9.0 23.0 0.00 0.17 0.00 79 1012.9
20260508034855 57 1 7.0 21.0 0.00 0.17 0.00 79 1012.9
20260508034715 57 31 10.0 21.0 0.00 0.17 0.00 78 1012.8
20260508033850 57 18 10.0 16.0 0.00 0.17 0.00 78 1012.9
20260508033349 57 356 8.0 17.0 0.00 0.17 0.00 78 1012.9
20260508032844 57 14 9.0 22.0 0.00 0.17 0.00 77 1013.0
20260508032708 57 359 15.0 22.0 0.00 0.17 0.00 77 1013.1
20260508031843 57 350 11.0 18.0 0.00 0.17 0.00 77 1013.0
20260508031340 57 291 8.0 20.0 0.00 0.17 0.00 77 1013.0
20260508030842 57 336 12.0 26.0 0.00 0.17 0.00 77 1013.2
20260508030340 57 347 15.0 26.0 0.00 0.17 0.00 76 1013.5
20260508025838 57 342 11.0 23.0 0.00 0.17 0.00 76 1013.4
20260508025337 57 353 5.0 16.0 0.00 0.17 0.00 76 1013.5
20260508024835 57 8 6.0 14.0 0.00 0.17 0.00 76 1013.5
20260508024335 57 351 7.0 16.0 0.00 0.17 0.00 76 1013.6
20260508023832 57 342 4.0 16.0 0.00 0.17 0.00 76 1013.7
20260508023655 57 239 5.0 16.0 0.00 0.17 0.00 76 1013.7
20260508022834 57 8 9.0 16.0 0.00 0.17 0.00 77 1013.7
20260508022333 57 257 6.0 23.0 0.00 0.17 0.00 77 1013.7
20260508021832 57 312 11.0 23.0 0.00 0.17 0.00 77 1013.7
20260508021333 57 349 15.0 22.0 0.00 0.17 0.00 78 1013.5
20260508021146 57 335 11.0 26.0 0.00 0.17 0.00 78 1013.6
20260508020333 57 38 11.0 26.0 0.00 0.17 0.00 78 1013.5
20260508015833 57 27 14.0 24.0 0.00 0.17 0.00 79 1013.5
20260508015331 57 349 15.0 27.0 0.00 0.17 0.00 80 1013.7
20260508014834 57 351 14.0 27.0 0.00 0.17 0.00 80 1013.9
20260508014331 57 6 11.0 23.0 0.00 0.17 0.00 79 1014.0
20260508013831 57 15 15.0 24.0 0.00 0.17 0.00 78 1013.8
20260508013650 57 337 13.0 24.0 0.00 0.17 0.00 77 1013.9
20260508012826 57 11 9.0 20.0 0.00 0.17 0.00 77 1014.1
20260508012322 57 337 11.0 20.0 0.00 0.17 0.00 76 1014.0
20260508012148 57 0 12.0 20.0 0.00 0.17 0.00 75 1014.1
20260508011323 57 351 15.0 19.0 0.00 0.17 0.00 74 1014.0
20260508010819 57 356 6.0 15.0 0.00 0.17 0.00 73 1014.0
20260508010317 57 15 7.0 15.0 0.00 0.17 0.00 73 1014.1
20260508005817 57 335 6.0 14.0 0.00 0.17 0.00 72 1014.2
20260508005312 57 337 5.0 16.0 0.00 0.17 0.00 72 1014.2
20260508004812 57 4 7.0 22.0 0.00 0.17 0.00 73 1014.3
20260508004312 57 353 15.0 22.0 0.00 0.17 0.00 73 1014.3
20260508003811 57 13 9.0 21.0 0.00 0.17 0.00 74 1014.3
20260508003308 57 3 7.0 16.0 0.00 0.17 0.00 75 1014.5
20260508002810 57 3 5.0 20.0 0.00 0.17 0.00 75 1014.4
20260508002310 57 323 9.0 20.0 0.00 0.17 0.00 75 1014.4
20260508001811 57 329 9.0 16.0 0.00 0.17 0.00 76 1014.3
20260508001305 57 328 7.0 17.0 0.00 0.17 0.00 76 1014.2
20260508000804 57 332 7.0 22.0 0.00 0.18 0.00 74 1014.0
20260508000305 57 340 12.0 22.0 0.00 0.18 0.00 74 1013.9
20260507235802 57 354 11.0 27.0 0.00 0.18 0.18 73 1013.9
20260507235306 57 356 11.0 32.0 0.00 0.18 0.18 74 1014.0
20260507235253 57 13 16.0 32.0 0.00 0.18 0.18 74 1013.9
20260507233747 57 347 20.0 32.0 0.00 0.18 0.18 74 1013.8
20260507233620 57 6 17.0 32.0 0.00 0.18 0.18 74 1013.7
20260507233131 57 346 20.0 29.0 0.00 0.18 0.18 74 1013.7
20260507232243 57 344 14.0 26.0 0.00 0.19 0.18 75 1013.8
20260507231735 57 354 16.0 30.0 0.00 0.20 0.18 74 1013.8
20260507231235 57 14 17.0 30.0 0.00 0.20 0.18 73 1013.7
20260507230735 57 20 18.0 31.0 0.00 0.21 0.18 74 1013.7
20260507230233 57 17 18.0 31.0 0.00 0.22 0.18 75 1013.8
20260507225736 57 346 18.0 29.0 0.00 0.23 0.18 76 1013.8
20260507225225 57 350 19.0 29.0 0.00 0.25 0.18 76 1013.7
20260507225049 57 346 17.0 29.0 0.00 0.29 0.18 75 1013.5
20260507224237 57 349 17.0 28.0 0.00 0.34 0.18 76 1013.5
20260507224044 57 1 13.0 26.0 0.00 0.37 0.18 76 1013.4
20260507223222 57 21 17.0 26.0 0.00 0.40 0.18 76 1013.3
20260507222823 56 340 14.0 22.0 0.00 0.42 0.18 76 1013.4
20260507221713 56 356 14.0 28.0 0.00 0.46 0.18 74 1013.4
20260507221558 56 349 15.0 24.0 0.00 0.47 0.18 74 1013.4
20260507220709 56 351 15.0 32.0 0.00 0.49 0.18 73 1013.2
20260507220208 57 350 25.0 32.0 0.00 0.50 0.18 72 1013.2
20260507215706 57 343 21.0 32.0 0.00 0.50 0.18 72 1013.3
20260507215203 57 18 22.0 35.0 0.00 0.50 0.18 71 1013.3
20260507214704 57 343 23.0 35.0 0.00 0.50 0.18 72 1013.1
20260507214159 57 349 25.0 33.0 0.00 0.50 0.18 74 1013.0
20260507213654 57 357 17.0 33.0 0.00 0.50 0.18 77 1013.1
20260507213520 57 328 24.0 33.0 0.00 0.51 0.18 79 1013.1
20260507212654 57 357 18.0 26.0 0.00 0.52 0.18 80 1013.1
20260507212156 56 342 9.0 21.0 0.00 0.54 0.18 81 1013.0
20260507211650 56 346 15.0 21.0 0.00 0.55 0.18 81 1013.0
20260507211148 56 342 11.0 23.0 0.00 0.57 0.18 81 1013.0
20260507210644 56 1 15.0 30.0 0.00 0.59 0.18 80 1012.8
20260507210517 57 351 21.0 30.0 0.00 0.61 0.18 79 1012.8
20260507205635 56 14 18.0 29.0 0.00 0.62 0.18 80 1012.6
20260507205134 56 3 16.0 24.0 0.00 0.64 0.18 80 1012.7
20260507204632 56 17 19.0 26.0 0.01 0.65 0.18 80 1012.6
20260507204134 56 3 16.0 26.0 0.01 0.67 0.18 80 1012.5
20260507203636 56 359 16.0 26.0 0.02 0.68 0.18 80 1012.4
20260507203134 56 359 12.0 23.0 0.03 0.69 0.18 81 1012.5
20260507202740 56 354 18.0 29.0 0.04 0.71 0.18 81 1012.4
20260507201632 56 343 21.0 31.0 0.04 0.72 0.18 80 1012.3
20260507201129 56 3 20.0 37.0 0.04 0.73 0.18 80 1012.2
20260507200629 55 0 23.0 37.0 0.04 0.73 0.18 81 1012.1
20260507200128 55 359 23.0 31.0 0.04 0.73 0.18 82 1012.1
20260507195626 55 349 17.0 27.0 0.04 0.70 0.18 82 1012.2
20260507195129 55 356 15.0 27.0 0.04 0.70 0.18 82 1012.2
20260507194626 55 332 16.0 30.0 0.03 0.70 0.17 82 1012.7
20260507194122 55 349 12.0 30.0 0.03 0.70 0.17 80 1012.5
20260507193943 56 325 14.0 22.0 0.02 0.70 0.17 79 1012.5
20260507193121 57 14 14.0 22.0 0.01 0.70 0.14 78 1012.5
20260507192621 57 339 13.0 22.0 0.00 0.71 0.14 78 1012.2
20260507192119 57 328 16.0 27.0 0.00 0.71 0.14 77 1012.0
20260507191614 57 347 20.0 28.0 0.00 0.71 0.14 75 1012.0
20260507191114 57 342 19.0 29.0 0.00 0.71 0.14 75 1012.0
20260507190608 57 344 20.0 29.0 0.00 0.72 0.14 75 1012.0
20260507190107 58 356 20.0 27.0 0.00 0.72 0.14 77 1012.0
20260507185949 58 349 12.0 31.0 0.00 0.72 0.14 79 1012.1
20260507185106 57 349 19.0 31.0 0.00 0.72 0.14 79 1012.1
20260507184602 57 346 15.0 28.0 0.00 0.72 0.14 79 1012.0
20260507184104 58 329 17.0 28.0 0.00 0.72 0.14 77 1012.1
20260507183603 58 332 17.0 24.0 0.00 0.72 0.14 76 1012.0
20260507183104 59 357 15.0 30.0 0.00 0.72 0.14 76 1011.9
20260507182559 59 339 15.0 30.0 0.00 0.72 0.14 75 1011.9
20260507182052 59 17 18.0 34.0 0.00 0.72 0.14 74 1011.9
20260507181544 59 342 19.0 34.0 0.00 0.72 0.14 74 1011.7
20260507181043 59 350 18.0 31.0 0.00 0.72 0.14 74 1011.7
20260507180541 59 333 17.0 31.0 0.00 0.72 0.14 71 1011.7
20260507180505 59 349 19.0 35.0 0.00 0.72 0.14 71 1011.6
20260507175534 59 347 20.0 35.0 0.00 0.72 0.14 72 1011.7
20260507175037 59 349 23.0 34.0 0.00 0.72 0.14 72 1011.7
20260507174538 59 335 24.0 34.0 0.00 0.72 0.14 73 1011.7
20260507174039 59 315 17.0 28.0 0.00 0.72 0.14 73 1011.7
20260507173537 59 349 20.0 34.0 0.00 0.72 0.14 73 1011.7
20260507173035 60 351 24.0 34.0 0.00 0.72 0.14 71 1011.6
20260507172852 60 340 13.0 31.0 0.00 0.72 0.14 73 1011.6
20260507172034 60 337 18.0 32.0 0.00 0.72 0.14 72 1011.5
20260507171853 59 354 20.0 32.0 0.00 0.72 0.14 71 1011.6
20260507171032 59 359 16.0 27.0 0.00 0.72 0.14 72 1011.6
20260507170533 60 351 18.0 30.0 0.00 0.72 0.14 71 1011.7
20260507170031 60 343 20.0 30.0 0.00 0.72 0.14 70 1011.6
20260507165523 60 3 15.0 28.0 0.00 0.72 0.14 73 1011.9
20260507165015 59 339 11.0 24.0 0.00 0.72 0.14 75 1011.7
20260507164837 59 357 15.0 26.0 0.00 0.72 0.14 76 1011.8